�N����,����,�~����,�C��,���x,�C��,����,���ϕ���,�ő�u�ԕ���,�ő厞����,���˗�,�I�_���x,�n�����x,�ő啗���N��,DTYPE
"16/07/01","00:10",0.0,21.6,94.3,1007.6,299.7,1.0,1.3,320.4,0.00,20.7,23.7,"00:04:16",1
"16/07/01","00:20",0.0,21.5,94.7,1007.6,306.2,1.0,1.6,311.6,0.00,20.7,23.5,"00:19:04",1
"16/07/01","00:30",0.0,21.5,94.8,1007.6,300.6,0.7,1.2,304.1,0.00,20.7,23.5,"00:23:36",1
"16/07/01","00:40",0.0,21.4,94.7,1007.6,296.2,0.5,1.1,319.7,0.00,20.6,23.5,"00:38:48",1
"16/07/01","00:50",0.0,21.3,95.0,1007.4,310.0,0.7,1.0,312.3,0.00,20.5,23.4,"00:44:24",1
"16/07/01","01:00",0.0,21.2,95.1,1006.9,326.8,1.1,1.3,323.9,0.00,20.4,23.2,"00:55:44",1
"16/07/01","01:10",0.0,21.2,95.2,1007.6,309.3,0.7,1.3,326.8,0.00,20.4,23.2,"01:00:16",1
"16/07/01","01:20",0.0,21.1,95.3,1007.4,299.0,0.8,1.1,319.8,0.00,20.4,23.2,"01:10:24",1
"16/07/01","01:30",0.0,21.1,95.6,1007.1,315.5,0.8,1.3,326.3,0.00,20.4,23.3,"01:26:24",1
"16/07/01","01:40",0.0,21.0,95.4,1007.1,287.8,0.7,1.0,325.6,0.00,20.3,23.2,"01:30:08",1
"16/07/01","01:50",0.0,20.9,95.7,1007.1,313.8,0.8,1.2,326.4,0.00,20.2,23.1,"01:47:12",1
"16/07/01","02:00",0.0,20.9,95.7,1007.4,319.3,1.1,1.2,316.4,0.00,20.2,23.1,"01:55:52",1
"16/07/01","02:10",0.0,20.9,96.0,1007.1,302.0,0.8,1.1,305.3,0.00,20.3,22.9,"02:04:56",1
"16/07/01","02:20",0.0,20.8,95.9,1007.6,303.8,0.7,1.0,308.5,0.00,20.2,23.0,"02:11:12",1
"16/07/01","02:30",0.0,20.7,95.9,1007.4,298.3,0.7,1.0,324.4,0.00,20.1,23.1,"02:24:32",1
"16/07/01","02:40",0.0,20.6,96.1,1007.8,297.6,0.7,1.3,315.8,0.00,20.0,23.1,"02:35:36",1
"16/07/01","02:50",0.0,20.6,96.1,1007.8,300.9,0.8,1.2,307.4,0.00,20.0,22.7,"02:42:24",1
"16/07/01","03:00",0.0,20.5,96.3,1007.6,312.5,0.7,1.1,309.9,0.00,19.9,22.9,"02:50:40",1
"16/07/01","03:10",0.0,20.5,96.3,1007.8,323.2,0.7,1.2,331.3,0.00,19.9,22.8,"03:08:40",1
"16/07/01","03:20",0.0,20.4,96.2,1007.8,308.8,0.8,1.3,329.2,0.00,19.8,22.7,"03:14:40",1
"16/07/01","03:30",0.0,20.4,96.6,1008.3,295.8,0.8,1.2,308.5,0.00,19.9,22.7,"03:22:08",1
"16/07/01","03:40",0.0,20.6,96.5,1008.1,315.0,0.8,1.3,344.4,0.00,20.1,22.7,"03:36:32",1
"16/07/01","03:50",0.0,20.7,96.4,1008.6,328.0,1.1,1.8,334.1,0.00,20.1,22.7,"03:42:24",1
"16/07/01","04:00",0.0,20.5,96.5,1008.3,301.7,0.7,1.0,318.4,0.00,20.0,22.6,"03:52:48",1
"16/07/01","04:10",0.0,20.6,96.7,1008.6,311.3,0.3,0.9,310.0,0.00,20.1,22.7,"04:07:04",1
"16/07/01","04:20",0.0,20.7,96.7,1008.3,321.0,0.8,1.6,350.9,0.00,20.2,22.8,"04:17:04",1
"16/07/01","04:30",0.0,20.8,96.6,1008.3,313.2,0.8,1.3,337.2,0.00,20.3,22.8,"04:20:48",1
"16/07/01","04:40",0.0,20.9,96.6,1008.3,307.6,0.7,1.1,319.6,0.00,20.4,22.6,"04:33:52",1
"16/07/01","04:50",0.0,20.9,96.7,1008.6,298.9,0.3,0.8,298.7,0.00,20.4,22.6,"04:46:24",1
"16/07/01","05:00",0.0,21.0,96.7,1008.6,302.2,0.8,1.1,317.3,0.00,20.5,22.6,"04:54:24",1
"16/07/01","05:10",0.0,21.1,96.7,1008.8,330.3,1.1,1.4,336.5,0.00,20.6,22.6,"05:00:02",1
"16/07/01","05:20",0.0,21.2,96.7,1008.6,320.7,1.1,1.6,341.4,0.00,20.7,22.7,"05:10:08",1
"16/07/01","05:30",0.0,21.3,96.6,1008.6,308.7,0.7,1.0,319.5,0.00,20.8,22.6,"05:23:44",1
"16/07/01","05:40",0.0,21.3,96.4,1008.3,291.4,0.8,1.2,326.5,0.00,20.7,22.7,"05:31:44",1
"16/07/01","05:50",0.0,21.6,96.5,1008.6,287.1,0.7,1.0,312.2,0.01,21.1,22.7,"05:41:04",1
"16/07/01","06:00",0.0,22.0,96.0,1008.8,299.8,0.7,1.1,313.5,0.02,21.4,22.7,"05:58:24",1
"16/07/01","06:10",0.0,22.2,95.5,1008.6,336.0,1.1,1.7,355.1,0.02,21.5,22.7,"06:03:20",1
"16/07/01","06:20",0.0,22.3,95.3,1008.8,317.5,0.8,1.3,335.5,0.03,21.6,22.9,"06:10:16",1
"16/07/01","06:30",0.0,22.5,94.8,1008.6,299.2,0.5,0.9,329.1,0.03,21.7,22.6,"06:23:28",1
"16/07/01","06:40",0.0,22.9,94.5,1008.6,299.5,0.2,0.6,327.1,0.06,22.0,22.7,"06:35:36",1
"16/07/01","06:50",0.0,23.1,93.6,1008.8,292.0,0.6,1.4,331.8,0.04,22.1,22.8,"06:46:56",1
"16/07/01","07:00",0.0,23.3,93.1,1008.6,331.0,1.0,1.9,338.5,0.05,22.2,23.0,"06:54:00",1
"16/07/01","07:10",0.0,23.6,92.1,1008.6,327.6,1.0,1.8,334.7,0.07,22.3,22.9,"07:02:40",1
"16/07/01","07:20",0.0,24.2,90.0,1008.8,310.4,0.3,1.0,342.0,0.08,22.5,23.0,"07:17:52",1
"16/07/01","07:30",0.0,24.3,88.3,1009.0,270.1,0.3,1.0,336.8,0.08,22.3,23.0,"07:20:40",1
"16/07/01","07:40",0.0,24.5,88.1,1009.0,279.0,0.3,0.8,240.5,0.11,22.4,23.1,"07:32:48",1
"16/07/01","07:50",0.0,24.6,86.9,1009.0,205.8,0.6,1.1,228.2,0.14,22.3,23.2,"07:46:32",1
"16/07/01","08:00",0.0,25.2,85.4,1008.6,124.4,0.3,1.1,216.8,0.15,22.6,23.2,"07:50:24",1
"16/07/01","08:10",0.0,25.0,84.9,1008.6,190.0,0.6,1.6,159.6,0.15,22.3,23.3,"08:03:36",1
"16/07/01","08:20",0.0,25.4,84.4,1008.6,100.4,0.5,1.6,120.8,0.16,22.6,23.6,"08:13:12",1
"16/07/01","08:30",0.0,25.9,82.8,1008.1,68.6,0.3,1.0,70.9,0.18,22.8,23.6,"08:27:52",1
"16/07/01","08:40",0.0,25.8,82.2,1008.1,150.7,0.6,1.2,127.4,0.17,22.6,23.7,"08:30:40",1
"16/07/01","08:50",0.0,26.3,80.0,1007.8,185.0,0.3,1.6,218.5,0.23,22.6,23.7,"08:48:16",1
"16/07/01","09:00",0.0,26.7,78.3,1007.6,138.7,0.5,1.8,130.1,0.27,22.6,24.0,"08:55:04",1
"16/07/01","09:10",0.0,27.3,76.5,1008.6,115.2,0.7,1.8,104.0,0.36,22.8,24.0,"09:02:48",1
"16/07/01","09:20",0.0,27.0,76.8,1008.6,44.4,0.7,1.7,0.2,0.21,22.6,23.9,"09:17:28",1
"16/07/01","09:30",0.0,26.6,78.6,1008.3,16.9,0.5,1.3,359.7,0.14,22.6,24.2,"09:20:24",1
"16/07/01","09:40",0.0,26.7,77.5,1008.3,12.5,0.7,1.4,35.5,0.14,22.5,24.2,"09:33:04",1
"16/07/01","09:50",0.0,26.9,77.2,1008.1,194.4,0.2,1.0,212.6,0.17,22.6,24.4,"09:40:48",1
"16/07/01","10:00",0.0,27.1,77.9,1007.8,177.8,0.7,1.9,202.2,0.16,23.0,24.5,"09:55:52",1
"16/07/01","10:10",0.0,27.6,77.1,1007.8,155.4,0.5,1.2,112.7,0.20,23.3,24.6,"10:05:28",1
"16/07/01","10:20",0.0,28.2,74.8,1007.6,163.6,0.5,1.6,119.0,0.27,23.3,24.7,"10:10:56",1
"16/07/01","10:30",0.0,29.0,71.7,1008.6,192.0,0.5,1.4,221.2,0.38,23.4,24.9,"10:29:04",1
"16/07/01","10:40",0.0,28.2,71.6,1008.8,199.0,1.3,2.7,222.0,0.31,22.6,24.9,"10:38:56",1
"16/07/01","10:50",0.0,28.6,71.2,1008.6,145.6,0.8,2.8,211.1,0.34,22.9,25.0,"10:40:02",1
"16/07/01","11:00",0.0,28.8,71.6,1008.8,156.5,0.6,1.7,177.5,0.36,23.2,24.9,"10:50:32",1
"16/07/01","11:10",0.0,29.6,70.4,1008.8,151.9,1.0,2.1,184.8,0.40,23.7,25.3,"11:02:48",1
"16/07/01","11:20",0.0,30.0,70.1,1009.3,127.4,0.6,1.8,149.1,0.49,24.0,25.5,"11:11:44",1
"16/07/01","11:30",0.0,30.5,62.8,1009.5,96.8,1.0,3.1,222.6,0.63,22.6,25.9,"11:26:08",1
"16/07/01","11:40",0.0,29.7,68.9,1009.3,207.0,0.7,2.2,226.4,0.31,23.4,26.0,"11:39:36",1
"16/07/01","11:50",0.0,30.5,67.5,1009.0,165.5,1.1,3.7,194.6,0.47,23.8,26.1,"11:40:56",1
"16/07/01","12:00",0.0,29.9,67.9,1009.3,138.9,1.1,2.5,161.2,0.37,23.4,26.2,"11:51:36",1
"16/07/01","12:10",0.0,29.8,68.8,1008.8,189.4,1.5,3.3,185.9,0.28,23.5,26.2,"12:09:12",1
"16/07/01","12:20",0.0,30.7,62.1,1008.6,155.0,1.6,3.4,201.6,0.64,22.6,26.5,"12:11:36",1
"16/07/01","12:30",0.0,31.2,59.8,1008.8,162.7,1.3,3.5,224.5,0.63,22.5,26.7,"12:24:08",1
"16/07/01","12:40",0.0,30.1,65.9,1008.6,169.1,1.5,3.1,200.6,0.27,23.1,26.9,"12:34:00",1
"16/07/01","12:50",0.0,30.6,65.9,1007.8,171.8,1.1,2.6,190.1,0.33,23.5,26.9,"12:40:02",1
"16/07/01","13:00",0.0,31.4,60.8,1007.8,173.5,1.5,2.7,186.4,0.52,23.0,27.0,"12:50:48",1
"16/07/01","13:10",0.0,31.3,60.3,1008.1,167.5,1.2,3.2,210.7,0.46,22.7,27.0,"13:09:20",1
"16/07/01","13:20",0.0,31.3,57.7,1007.8,151.8,1.2,2.8,219.7,0.36,22.0,27.1,"13:10:40",1
"16/07/01","13:30",0.0,31.8,55.1,1007.8,116.5,1.0,2.2,184.9,0.47,21.7,27.0,"13:21:36",1
"16/07/01","13:40",0.0,32.1,57.4,1007.8,178.2,1.1,3.2,226.1,0.44,22.7,27.1,"13:38:56",1
"16/07/01","13:50",0.0,31.7,59.2,1007.4,168.9,1.1,3.5,205.0,0.36,22.8,27.1,"13:40:08",1
"16/07/01","14:00",0.0,32.0,57.2,1007.6,179.2,0.7,1.8,215.5,0.38,22.5,27.3,"13:57:44",1
"16/07/01","14:10",0.0,30.9,63.4,1006.9,156.9,1.0,2.7,120.4,0.18,23.2,27.2,"14:00:24",1
"16/07/01","14:20",0.0,32.2,59.4,1006.9,171.7,1.8,3.6,206.1,0.50,23.3,27.3,"14:14:56",1
"16/07/01","14:30",0.0,32.4,56.8,1006.7,192.6,1.8,3.5,209.3,0.51,22.8,27.4,"14:28:08",1
"16/07/01","14:40",0.0,32.2,56.7,1006.9,175.5,1.2,3.6,227.3,0.39,22.6,27.4,"14:32:32",1
"16/07/01","14:50",0.0,32.0,59.2,1006.7,171.5,1.1,2.7,215.7,0.29,23.1,27.5,"14:40:24",1
"16/07/01","15:00",0.0,32.4,56.8,1006.4,161.8,1.3,2.6,184.4,0.40,22.8,27.6,"14:50:08",1
"16/07/01","15:10",0.0,32.2,57.4,1006.7,161.5,1.0,4.0,131.2,0.34,22.8,27.8,"15:08:24",1
"16/07/01","15:20",0.0,31.6,58.4,1006.7,201.3,1.8,4.8,207.8,0.27,22.5,27.8,"15:18:00",1
"16/07/01","15:30",0.0,30.9,63.1,1006.0,184.2,2.5,5.0,195.2,0.11,23.1,27.8,"15:23:28",1
"16/07/01","15:40",0.0,30.8,61.2,1005.7,179.7,2.5,4.2,196.1,0.14,22.5,27.9,"15:37:52",1
"16/07/01","15:50",0.0,31.7,58.6,1005.5,232.8,0.7,2.6,236.3,0.26,22.6,27.8,"15:49:04",1
"16/07/01","16:00",0.0,31.4,60.8,1006.0,219.8,1.8,3.9,231.0,0.21,23.0,27.8,"15:55:52",1
"16/07/01","16:10",0.0,31.6,58.5,1006.0,217.5,1.6,3.1,217.9,0.25,22.5,27.9,"16:07:52",1
"16/07/01","16:20",0.0,31.1,59.7,1005.7,218.6,1.6,4.0,222.4,0.19,22.4,27.8,"16:12:24",1
"16/07/01","16:30",0.0,31.1,59.7,1005.7,196.7,1.7,3.4,218.3,0.13,22.4,27.7,"16:27:44",1
"16/07/01","16:40",0.0,31.0,61.5,1005.5,236.4,0.8,3.3,227.9,0.08,22.8,27.9,"16:30:16",1
"16/07/01","16:50",0.0,30.7,61.8,1005.2,244.4,0.5,2.2,217.9,0.08,22.6,27.7,"16:41:04",1
"16/07/01","17:00",0.0,30.7,61.5,1005.2,229.1,1.0,2.9,226.7,0.08,22.5,27.9,"16:51:44",1
"16/07/01","17:10",0.0,30.7,61.8,1005.0,214.9,1.7,3.1,217.6,0.07,22.6,27.6,"17:01:12",1
"16/07/01","17:20",0.0,30.6,62.4,1005.0,230.1,0.7,3.1,215.9,0.07,22.6,27.5,"17:10:48",1
"16/07/01","17:30",0.0,30.3,62.5,1004.8,220.9,1.7,4.2,232.4,0.06,22.4,27.4,"17:24:16",1
"16/07/01","17:40",0.0,30.1,62.3,1004.8,250.2,0.6,2.6,212.2,0.05,22.1,27.3,"17:33:28",1
"16/07/01","17:50",0.0,30.0,63.5,1004.5,235.2,0.6,1.4,215.1,0.05,22.4,27.3,"17:42:48",1
"16/07/01","18:00",0.0,29.7,63.1,1004.5,236.5,1.1,2.2,229.6,0.04,22.0,27.4,"17:51:28",1
"16/07/01","18:10",0.0,29.6,65.3,1004.5,243.9,0.6,2.0,218.9,0.03,22.4,27.2,"18:03:20",1
"16/07/01","18:20",0.0,29.4,66.4,1004.5,243.1,0.6,1.8,234.1,0.02,22.5,27.1,"18:15:36",1
"16/07/01","18:30",0.0,29.1,67.2,1004.5,244.2,0.3,1.3,243.6,0.02,22.4,27.1,"18:20:40",1
"16/07/01","18:40",0.0,28.8,68.1,1004.5,220.0,0.3,1.8,225.7,0.01,22.4,26.9,"18:30:02",1
"16/07/01","18:50",0.0,28.4,72.9,1004.5,299.8,0.6,1.3,349.6,0.00,23.1,26.8,"18:48:32",1
"16/07/01","19:00",0.0,27.7,75.7,1005.0,285.9,0.3,0.9,344.4,0.00,23.1,26.7,"18:54:00",1
"16/07/01","19:10",0.0,27.1,77.8,1005.0,314.1,0.6,1.2,339.3,0.00,22.9,26.8,"19:05:28",1
"16/07/01","19:20",0.0,26.6,79.2,1005.2,294.9,0.3,0.9,329.5,0.00,22.7,26.8,"19:10:02",1
"16/07/01","19:30",0.0,26.2,80.7,1005.5,310.8,0.5,1.0,310.2,0.00,22.7,26.5,"19:20:48",1
"16/07/01","19:40",0.0,25.8,81.8,1005.5,252.7,0.2,1.0,264.2,0.00,22.5,26.4,"19:39:44",1
"16/07/01","19:50",0.0,25.6,82.5,1006.0,324.7,0.5,1.2,334.9,0.00,22.4,26.2,"19:49:28",1
"16/07/01","20:00",0.0,25.4,83.2,1005.7,305.7,0.5,0.9,352.6,0.00,22.4,26.3,"19:50:24",1
"16/07/01","20:10",0.0,25.1,83.8,1006.2,304.7,0.5,1.0,340.6,0.00,22.2,26.2,"20:01:44",1
"16/07/01","20:20",0.0,25.0,84.1,1006.2,296.9,0.6,1.3,344.8,0.00,22.2,26.2,"20:19:44",1
"16/07/01","20:30",0.0,24.8,84.3,1006.4,307.7,0.7,1.2,319.5,0.00,22.0,26.1,"20:20:32",1
"16/07/01","20:40",0.0,24.7,84.9,1006.4,302.0,0.7,0.9,332.2,0.00,22.0,25.8,"20:33:52",1
"16/07/01","20:50",0.0,24.6,85.8,1006.9,324.0,0.8,1.4,345.3,0.00,22.1,25.7,"20:49:44",1
"16/07/01","21:00",0.0,24.5,86.1,1006.7,311.9,0.7,1.3,350.3,0.00,22.1,25.8,"20:52:16",1
"16/07/01","21:10",0.0,24.4,86.2,1007.1,269.5,0.6,1.1,241.5,0.00,22.0,25.8,"21:08:32",1
"16/07/01","21:20",0.0,24.6,85.7,1006.9,309.2,1.0,1.8,338.6,0.00,22.1,25.8,"21:18:32",1
"16/07/01","21:30",0.0,24.6,85.6,1007.1,323.0,1.1,1.7,337.7,0.00,22.1,25.5,"21:23:20",1
"16/07/01","21:40",0.0,24.6,85.3,1007.1,260.2,0.7,1.6,235.6,0.00,22.0,25.5,"21:36:00",1
"16/07/01","21:50",0.0,24.4,85.1,1007.1,293.5,0.6,0.9,327.0,0.00,21.8,25.4,"21:40:56",1
"16/07/01","22:00",0.0,24.2,85.3,1006.9,291.8,0.5,0.8,283.8,0.00,21.6,25.3,"21:56:32",1
"16/07/01","22:10",0.0,24.1,86.0,1007.1,303.4,0.6,0.9,302.7,0.00,21.7,25.4,"22:00:08",1
"16/07/01","22:20",0.0,23.9,86.7,1007.1,295.5,0.5,1.0,314.1,0.00,21.6,25.4,"22:19:04",1
"16/07/01","22:30",0.0,24.0,86.6,1007.1,318.3,1.2,1.4,309.4,0.00,21.7,25.2,"22:21:12",1
"16/07/01","22:40",0.0,24.0,86.3,1007.1,302.9,1.0,1.7,335.3,0.00,21.6,25.2,"22:31:04",1
"16/07/01","22:50",0.0,23.9,85.9,1007.1,293.8,1.0,1.7,326.9,0.00,21.4,25.1,"22:45:28",1
"16/07/01","23:00",0.0,24.1,85.0,1007.1,318.4,1.3,2.9,348.6,0.00,21.5,24.9,"22:52:24",1
"16/07/01","23:10",0.0,24.2,84.1,1006.9,327.6,1.0,1.9,353.3,0.00,21.4,25.1,"23:08:24",1
"16/07/01","23:20",0.0,24.2,84.1,1006.7,325.1,0.8,1.9,351.7,0.00,21.4,25.0,"23:18:00",1
"16/07/01","23:30",0.0,24.2,84.5,1006.9,260.3,0.6,1.1,334.6,0.00,21.5,24.8,"23:26:48",1
"16/07/01","23:40",0.0,24.1,84.7,1006.4,250.7,0.8,1.9,243.1,0.00,21.4,25.1,"23:39:12",1
"16/07/01","23:50",0.0,24.0,84.5,1006.7,233.6,0.6,2.0,239.1,0.00,21.3,24.8,"23:41:28",1
"16/07/01","24:00",0.0,23.8,85.2,1007.1,265.1,0.6,1.1,252.8,0.00,21.2,24.6,"23:56:40",1
